Regional Weather Roundup
Issued by NWS Cleveland, OH

Home | Current Version | Previous Version | Graphics & Text | Print | Product List | Glossary On
Versions: 1 2 3 4 5 6 7 8 9 10 11 12 13 14 15 16 17 18 19 20 21 22 23 24 25 26 27 28 29 30 31 32 33 34 35 36 37 38 39 40 41 42 43 44 45 46 47 48 49 50
000
ASUS41 KCLE 210310
RWRCLE
OHIO REGIONAL WEATHER ROUNDUP
NATIONAL WEATHER SERVICE WILMINGTON, OH
1000 PM EST MON FEB 20 2017

NOTE: "FAIR" INDICATES FEW OR NO CLOUDS BELOW 12,000 FEET WITH NO
SIGNIFICANT WEATHER AND/OR OBSTRUCTIONS TO VISIBILITY.

OHZ001>008-015>018-024>027-034-035-043-044-210400-
   NORTHWEST OHIO

CITY           SKY/WX    TMP DP  RH WIND       PRES   REMARKS
DEFIANCE       FAIR      39  32  76 E7        30.13S
FINDLAY        FAIR      44  34  67 E6        30.11F
TOLEDO EXPRESS FAIR      38  33  82 E6        30.14F
TOLEDO EXEC    FAIR      37  33  85 E6        30.15F
LIMA           FAIR      51  40  65 SE9       30.10F
$$

OHZ009>014-019>023-028>033-038-089-210400-
   NORTHEAST OHIO

CITY           SKY/WX    TMP DP  RH WIND       PRES   REMARKS
CLE-HOPKINS    MOCLDY    43  33  68 CALM      30.18F
CLE-LAKEFRONT  FAIR      39  34  82 CALM      30.16F
CUY CO. ARPT   MOCLDY    46  34  61 SE5       30.17F
LORAIN-ELYRIA  FAIR      37  30  75 CALM      30.16F
ASHTABULA      FAIR      36  31  82 E5        30.20F
AKRON-CANTON   FAIR      50  29  44 E8        30.17F
WOOSTER        FAIR      41  35  79 E5        30.16F
MANSFIELD      FAIR      48  37  65 SE7       30.14F
YOUNGSTOWN     MOCLDY    44  30  57 E8        30.20F
$$

OHZ042-051>053-060>062-070>072-077>081-210400-
  SOUTHWEST OHIO

CITY           SKY/WX    TMP DP  RH WIND       PRES   REMARKS
CINC-COVINGTON MOCLDY    56  42  59 E8        30.10S
CINC-LUNKEN    FAIR      46  43  89 CALM      30.11S
HAMILTON       FAIR      54  42  64 CALM      30.11S
DAYTON         CLOUDY    52  43  71 SE7       30.12S
WRIGHT-PAT AFB MOCLDY    51  44  78 CALM      30.12S
DAYTON GENERAL FAIR      55  39  54 SE10      30.09F
WILMINGTON     FAIR      49  40  71 SE7       30.11F
$$

OHZ036-037-039>041-045>050-054>059-063>069-073>076-082>088-210400-
  CENTRAL AND SOUTHEAST OHIO

CITY           SKY/WX    TMP DP  RH WIND       PRES   REMARKS
COLUMBUS       CLOUDY    54  40  59 SE7       30.13F
OSU AIRPORT    FAIR      50  42  74 E8        30.12F
BOLTON FIELD   FAIR      49  43  78 SE6       30.14S
RICKENBACK AFB FAIR      49  43  80 E3        30.13F
NEWARK         FAIR      41  38  89 CALM      30.14F
MARION         FAIR      49  36  61 SE7       30.13F
LANCASTER      FAIR      45  41  86 CALM      30.14S
ZANESVILLE     FAIR      46  38  73 CALM      30.15F
NEW PHILLY     FAIR      44  37  76 CALM      30.18F
$$




USA.gov is the U.S. government's official web portal to all federal, state and local government web resources and services.